Printer-friendly version
Follow the MPC on Twitter Follow the MPC on Facebook The MPC blog
Minor Planet Center

MPEC 2007-V46 : 2007 VJ8

The following Minor Planet Electronic Circular may be linked-to from your own Web pages, but must not otherwise be redistributed electronically.

A form allowing access to any MPEC is at the bottom of this page.


Read MPEC 2007-V45 Read MPEC 2007-V47


M.P.E.C. 2007-V46                                Issued 2007 Nov. 6, 13:05 UT

     The Minor Planet Electronic Circulars contain information on unusual
         minor planets and routine data on comets.  They are published
   on behalf of Commission 20 of the International Astronomical Union by the
          Minor Planet Center, Smithsonian Astrophysical Observatory,
                          Cambridge, MA 02138, U.S.A.

             Prepared using the Tamkin Foundation Computer Network

                              MPC@CFA.HARVARD.EDU
          URL http://www.cfa.harvard.edu/iau/mpc.html  ISSN 1523-6714

                                   2007 VJ8

Observations:
     K07V08J* C2007 11 05.25778 02 55 00.84 +17 24 57.4          21.1 V EV046G96
     K07V08J  C2007 11 05.25849 02 55 01.05 +17 24 58.1          20.7 V EV046G96
     K07V08J  C2007 11 05.25921 02 55 01.27 +17 24 58.7          20.5 V EV046G96
     K07V08J  C2007 11 05.35944 02 55 32.44 +17 27 04.2          21.4 V EV046G96
     K07V08J  C2007 11 05.36444 02 55 33.99 +17 27 10.5          21.1 V EV046G96
     K07V08J  C2007 11 05.36693 02 55 34.78 +17 27 13.5          21.1 V EV046G96
     K07V08J tC2007 11 06.37048 03 01 13.89 +17 47 59.0          21.5 V EV046291
     K07V08J tC2007 11 06.37440 03 01 15.23 +17 48 03.9          21.6 V EV046291

Observer details:
291 LPL/Spacewatch II.  Observer T. H. Bressi.  1.8-m f/2.7 reflector + CCD.
G96 Mt. Lemmon Survey.  Observer A. R. Gibbs.  Measurers E. C. Beshore,
    A. Boattini, G. J. Garradd, A. R. Gibbs, A. D. Grauer, R. E. Hill,
    R. A. Kowalski, S. M. Larson, R. H. McNaught.  1.5-m reflector + CCD.

Orbital elements:
2007 VJ8                                                 Earth MOID = 0.1325 AU
Epoch 2007 Oct. 27.0 TT = JDT 2454400.5                 MPC
M 356.20279              (2000.0)            P               Q
n   0.16864327     Peri.  181.14861     +0.54606535     -0.83772341
a   3.2445667      Node   235.75392     +0.76866845     +0.50371931
e   0.6545334      Incl.    0.39283     +0.33310876     +0.21091786
P   5.84           H   24.7           G   0.15           U   9
Residuals in seconds of arc
071105 G96  0.2+  0.0     071105 G96  0.0   0.1+    071106 291  0.6-  0.1-
071105 G96  0.0   0.2-    071105 G96  0.1-  0.3+    071106 291  0.6+  0.1+
071105 G96  0.1-  0.5-    071105 G96  0.0   0.3+

Ephemeris:
2007 VJ8                 a,e,i = 3.24, 0.65, 0                   q = 1.1209
Date    TT    R. A. (2000) Decl.     Delta      r     Elong.  Phase     V
2007 11 06    02 59.15   +17 40.6    0.142    1.133   175.6     3.9    21.1
2007 11 08    03 10.71   +18 21.4    0.139    1.129   174.8     4.6    21.1
2007 11 10    03 22.73   +19 00.5    0.137    1.126   173.9     5.4    21.1
2007 11 12    03 35.12   +19 37.4    0.135    1.124   172.9     6.2    21.1
2007 11 14    03 47.77   +20 11.5    0.134    1.122   171.9     7.1    21.1
2007 11 16    04 00.53   +20 42.1    0.134    1.121   170.9     8.0    21.1
2007 11 18    04 13.27   +21 08.9    0.134    1.121   169.9     8.9    21.2
2007 11 20    04 25.86   +21 31.6    0.135    1.121   169.0     9.7    21.2
2007 11 22    04 38.15   +21 50.3    0.137    1.122   168.1    10.4    21.3
2007 11 24    04 50.04   +22 05.0    0.139    1.123   167.4    11.1    21.4
2007 11 26    05 01.40   +22 16.0    0.141    1.125   166.8    11.6    21.4
2007 11 28    05 12.16   +22 23.6    0.145    1.128   166.3    12.0    21.5
2007 11 30    05 22.27   +22 28.3    0.149    1.131   166.0    12.2    21.6
2007 12 02    05 31.68   +22 30.5    0.153    1.135   165.8    12.3    21.6
2007 12 04    05 40.38   +22 30.8    0.158    1.139   165.8    12.2    21.7
2007 12 06    05 48.37   +22 29.6    0.163    1.144   166.0    12.0    21.8

Timothy B. Spahr             (C) Copyright 2007 MPC           M.P.E.C. 2007-V46

Read MPEC 2007-V45 Read MPEC 2007-V47


MPEC number:

Enter an MPEC number in one of the following forms:

  • 1997-B01 (the full form)
  • J97B01 (the packed version of the full form)
  • B01 (the abbreviated form)

Valid HTML 4.01!